SCP
0 0 0 0 0 0 0 0 0 0 0 0 0 0 0 0 0 0 0 0 0 0 -0 -0 -0 0 0 0 0 0 0 0 0 0 0 0 0 0 0 0 0 0 0
0 0 0 0 0 0 0 0 0 0 0 0 0 0 0 0 0 0 0 0 0 -0 -0 0 0 0 0 0 0 0 0 0 0 0 0 0 0 0 0 0 0 0 0
0 0 0 0 0 0 0 0 0 0 0 0 0 0 0 0 0 0 0 0 0 0 0 0 0 0 0 0 0 0 0 0 0 0 0 0 0 0 0 0 0 0 0
0 0 0 0 0 0 0 0 0 0 0 0 0 0 0 0 0 0 0 0 0 0 0 0 0 0 0 0 0 0 0 0 0 0 0 0 0 0 0 0 0 0 0
0 0 0 0 0 0 0 0 0 0 0 0 0 0 0 0 0 0 -0 0 0 0 0 0 0 0 0 0 0 0 0 0 0 0 0 0 0 0 0 0 0 0 0
0 0 0 0 0 0 0 0 0 0 0 0 0 0 0 0 0 0 0 0 0 0 0 0 0 0 0 0 0 0 0 0 0 0 0 0 0 0 0 0 0 0 0
0 0 0 0 0 0 0 0 0 0 0 0 0 0 0 0 0 0 0 0 0 0 0 0 0 0 0 0 0 0 0 0 0 0 0 0 0 0 0 0 0 0 0
0 0 0 0 0 0 0 0 0 0 0 0 0 0 0 0 0 0 0 0 0 0 0 0 0 0 0 0 0 0 0 0 0 0 0 0 0 0 0 0 0 0 0
0 0 0 0 0 0 0 0 0 0 0 0 0 0 0 0 0 0 0 0 0 0 0 0 0 0 0 0 0 0 0 0 0 0 0 0 0 0 0 0 0 0 0
0 0 0 0 0 0 0 0 0 0 0 0 0 0 0 0 0 0 0 0 0 0 0 0 0 0 0 0 0 0 0 0 0 0 0 0 0 0 0 0 0 0 0
0 0 0 0 0 0 0 0 0 0 0 0 0 0 0 0 0 0 0 0 0 0 0 0 0 0 0 0 0 0 0 0 0 0 0 0 0 0 0 0 0 0 0
0 0 0 0 0 0 0 0 0 0 0 0 0 0 0 0 0 0 0 0 0 0 0 0 0 0 0 0 0 0 0 0 0 0 0 0 0 0 0 0 0 0 0
0 0 0 0 0 0 0 0 0 0 0 0 0 0 0 0 0 0 0 0 0 0 0 0 0 0 0 0 0 0 0 0 0 0 0 0 0 0 0 0 0 0 0
0 0 0 0 0 0 0 0 0 0 0 0 0 0 0 0 0 0 0 0 0 0 0 0 0 0 0 0 0 0 0 0 0 0 0 0 0 0 0 0 0 0 0
0 0 0 0 0 0 0 0 0 0 0 0 0 0 0 0 0 0 0 0 0 0 0 0 0 0 0 0 0 0 0 0 0 0 0 0 0 0 0 0 0 0 0
0 0 0 0 0 0 0 0 0 0 0 0 0 0 0 0 0 0 0 0 0 0 0 0 0 0 0 0 0 0 0 0 0 0 0 0 0 0 0 0 0 0 0
0 0 0 0 0 0 0 0 0 0 0 0 0 0 0 0 0 0 0 0 0 0 0 0 0 0 0 0 0 0 0 0 0 0 0 0 0 0 0 0 0 0 0
0 0 0 0 0 0 0 0 0 0 0 0 0 0 0 0 0 0 0 0 0 0 0 0 0 0 0 0 0 0 0 0 0 0 0 0 0 0 0 0 0 0 0
0 0 0 0 0 0 0 0 0 0 0 0 0 0 0 0 0 0 0 0 0 0 0 0 0 0 0 0 -0 0 0 0 0 0 0 0 0 0 0 0 0 0 0
0 0 0 0 0 0 0 0 0 0 0 0 0 0 0 0 0 0 0 0 0 0 0 0 0 0 0 -0 -0 0 0 0 0 0 0 0 0 0 0 0 0 0 0
0 0 0 0 0 0 0 0 0 0 0 0 0 0 0 0 0 0 0 0 0 0 0 0 0 0 0 0 -0 -0 0 0 0 0 0 0 0 0 -0 0 0 0 0
0 0 0 0 0 0 0 0 0 0 0 0 0 0 0 0 0 0 0 0 0 0 0 0 0 0 0 -0 -0 -0 -0 0 0 0 0 0 0 0 0 0 0 0 0
0 0 0 0 0 0 0 0 0 0 0 0 0 0 0 0 0 0 0 0 0 0 0 0 0 0 0 0 -0 -0 0 0 0 0 0 0 0 0 0 0 0 0 0
0 0 0 0 0 0 0 0 0 0 0 0 0 0 0 0 0 0 0 0 0 0 0 0 0 0 0 -0 -0 0 0 0 0 0 0 0 0 0 0 0 0 0 0
0 0 0 0 0 0 0 0 0 0 0 0 0 0 0 0 0 0 0 0 0 0 0 0 0 0 0 -0 -0 -0 0 0 0 0 0 0 0 0 0 0 0 0 0
0 0 0 0 0 0 0 0 0 0 0 0 0 0 0 0 0 0 0 0 0 0 0 0 0 0 -0 -0 -0 -0 -0 -0 -0 -0 0 0 0 0 0 0 0 0 0
Wind_Speed_500mb
17 11 8 8 9 11 15 20 26 32 39 45 52 56 60 62 61 63 66 70 73 76 78 78 77 74 72 72 72 75 80 82 76 81 90 94 96 101 88 77 68 63 61
20 14 11 11 13 16 21 25 31 37 44 50 54 58 60 60 64 67 71 77 81 83 83 82 82 79 79 76 72 70 75 77 55 54 59 61 76 67 56 40 41 43 48
21 19 18 20 20 20 23 28 35 41 48 54 57 61 65 69 73 75 79 79 80 80 78 77 75 74 72 72 70 69 67 79 71 51 46 40 42 53 58 52 52 53 53
28 25 25 23 21 23 26 31 38 45 51 57 61 66 71 77 79 83 87 89 86 83 78 75 74 74 75 77 75 68 68 68 79 69 54 63 77 80 80 61 57 49 51
34 32 29 28 27 27 30 36 42 49 54 58 62 67 73 79 86 90 94 92 88 80 72 67 65 65 67 69 71 75 76 70 70 72 67 68 72 75 78 79 70 68 72
38 36 35 32 28 30 34 42 48 53 58 62 67 72 79 84 89 91 90 87 85 81 73 68 66 66 68 70 73 73 73 74 73 70 65 70 70 74 69 69 72 73 74
43 42 37 32 32 37 43 49 55 61 64 70 74 77 81 84 86 84 82 82 82 79 75 70 69 69 70 71 72 72 72 69 68 63 62 65 69 72 76 82 88 72 63
46 44 37 36 38 43 47 54 59 65 69 74 78 80 81 81 78 75 75 76 76 76 74 73 71 70 70 71 70 71 70 67 62 59 63 71 64 71 71 77 77 57 54
41 40 36 37 41 46 49 53 60 67 73 77 81 82 79 74 72 72 73 75 75 75 74 72 73 72 71 69 69 72 71 66 58 63 62 65 77 73 68 71 75 67 37
38 36 35 36 40 41 42 50 61 70 75 79 79 76 73 72 73 75 77 76 76 76 75 74 72 72 71 70 68 69 69 63 62 61 63 69 70 65 65 62 69 66 60
34 32 31 35 37 36 45 56 66 74 77 76 75 75 78 79 80 80 81 80 79 80 76 76 76 75 74 73 72 69 68 60 60 62 61 63 66 62 62 59 59 57 57
27 26 31 35 34 43 55 64 71 74 73 74 76 78 79 78 79 79 77 73 72 76 70 69 76 80 80 78 77 73 69 62 59 62 66 66 65 61 61 53 54 53 52
20 23 29 30 40 53 63 69 70 71 73 73 76 78 77 80 80 77 77 79 69 72 74 68 67 79 83 83 79 74 65 59 62 66 74 75 66 64 57 53 53 48 48
16 22 25 36 50 59 65 69 72 72 72 75 78 79 80 83 80 78 81 79 78 75 74 70 81 81 89 87 79 64 60 62 61 65 70 72 65 59 48 56 45 44 39
16 20 36 49 56 63 67 71 71 72 73 77 79 80 85 85 81 83 87 87 81 78 73 80 90 89 85 71 60 63 65 63 68 61 67 62 55 51 45 48 44 40 35
20 37 47 55 63 67 71 70 72 75 75 78 80 84 85 83 84 91 93 97 89 80 74 82 79 73 67 62 60 56 63 67 60 61 64 62 51 46 43 46 45 46 45
37 48 56 63 66 68 69 72 74 75 79 82 85 85 84 87 93 96 94 92 84 80 79 76 67 65 66 59 59 60 57 56 54 54 57 59 40 32 31 33 34 29 36
48 55 61 64 62 63 67 72 76 80 83 86 86 84 87 95 95 93 90 84 78 73 70 67 60 67 70 60 57 55 51 46 46 47 46 45 33 29 28 24 27 32 30
47 53 56 56 60 66 71 77 83 84 87 88 87 88 92 94 94 92 84 81 73 69 72 67 64 73 56 50 53 51 48 49 50 38 37 34 26 8 16 18 16 17 24
46 49 48 53 60 67 74 81 85 88 89 88 85 90 90 89 87 79 77 73 68 68 78 66 48 52 53 58 52 47 51 47 39 39 44 20 24 19 14 16 18 21 23
44 43 48 56 61 69 77 83 87 87 85 87 90 90 86 83 77 72 72 68 69 59 60 58 57 57 50 61 47 46 52 42 47 40 35 26 14 20 20 22 22 19 19
42 46 53 59 65 73 79 83 84 83 85 88 89 88 83 78 74 72 70 63 55 56 58 65 68 59 66 50 48 50 42 48 38 39 33 27 20 26 19 23 20 15 20
40 46 55 64 69 75 77 81 79 82 86 87 87 83 78 74 70 65 66 63 58 54 58 71 62 67 63 53 51 61 46 41 42 35 33 34 20 17 16 19 18 21 25
43 51 60 67 75 76 77 73 77 80 81 84 83 78 75 74 69 66 64 61 58 56 70 62 63 61 59 52 59 63 52 46 41 37 36 27 15 12 6 17 25 21 13
45 54 62 69 73 77 75 73 75 78 79 80 77 74 73 72 73 68 64 59 53 50 58 57 56 58 58 52 54 46 46 35 32 33 32 23 2 4 9 20 18 13 9
51 60 66 70 74 72 70 71 72 73 76 77 73 71 71 71 71 74 74 60 53 47 43 41 43 48 43 44 45 46 37 34 37 35 30 21 16 10 10 14 14 11 11
Wind_Direction_500mb
222 233 247 265 286 306 319 328 335 338 337 336 335 333 333 332 329 328 328 327 326 326 325 324 321 318 316 315 314 311 307 303 303 300 294 290 288 286 282 280 277 272 267
222 237 251 264 280 298 313 321 331 336 337 337 335 332 328 325 325 325 325 327 327 327 326 324 323 322 320 319 319 317 313 307 311 306 303 300 295 288 292 279 276 268 262
232 239 249 260 274 294 312 327 333 334 334 332 329 328 326 327 328 328 328 328 326 324 323 322 321 320 320 319 320 320 319 313 308 301 286 293 276 297 292 281 267 262 259
233 239 250 265 284 299 313 322 326 328 329 330 330 331 332 332 331 329 328 327 325 324 323 320 319 318 319 320 320 319 317 315 309 303 284 276 275 280 288 275 274 270 263
232 240 250 260 275 292 305 316 321 325 327 329 330 331 330 329 328 329 327 325 323 323 322 319 317 317 317 316 315 316 315 314 309 304 294 284 278 277 273 278 269 269 261
236 244 252 261 278 292 304 311 317 323 324 326 330 330 329 328 326 325 323 323 322 323 322 319 317 317 318 318 315 313 312 309 308 305 294 284 280 279 274 274 269 264 262
238 246 252 265 278 291 304 313 318 321 325 328 328 328 327 325 323 323 323 322 322 322 322 320 319 319 318 316 316 314 312 308 306 305 298 290 283 281 279 273 278 267 267
242 249 257 269 282 294 304 310 315 321 325 326 326 325 325 322 322 323 322 321 321 322 322 320 318 317 317 317 316 314 312 309 301 298 296 293 288 291 284 278 279 270 263
246 255 266 278 287 293 297 307 318 322 324 325 325 325 325 325 322 322 322 322 322 321 321 320 319 317 316 316 317 314 314 312 303 291 290 292 289 287 286 278 271 272 294
254 259 268 280 292 299 303 311 317 321 325 325 324 324 324 324 323 322 322 320 318 317 316 317 318 318 317 315 314 312 311 308 308 307 298 292 292 290 285 285 275 267 275
266 265 278 297 303 303 310 317 321 324 325 325 325 324 324 325 323 320 318 317 315 315 315 314 315 317 319 318 314 310 311 307 300 299 302 297 290 288 288 289 279 269 267
264 273 296 306 307 314 320 323 324 324 326 326 326 326 327 327 325 323 321 318 313 313 311 310 312 313 313 316 317 312 310 309 307 310 312 306 297 288 286 282 278 271 264
268 292 306 308 319 324 325 324 326 327 328 329 329 328 328 328 326 323 322 321 314 312 311 307 309 313 313 311 313 310 308 309 309 309 312 309 303 285 286 281 269 263 261
287 305 309 322 325 325 326 328 330 332 333 331 330 329 328 327 324 322 323 323 319 311 314 306 310 310 314 312 310 308 303 304 305 304 308 303 298 283 280 278 260 254 250
311 323 331 329 329 330 332 332 333 335 333 331 329 329 327 327 325 325 323 321 321 312 307 305 307 309 313 311 309 304 305 305 303 302 312 302 298 282 279 259 255 242 231
338 338 333 333 335 336 335 335 336 336 334 331 331 330 329 328 327 325 322 320 319 315 308 308 309 310 311 309 307 302 301 299 301 310 307 301 295 280 287 248 250 238 226
345 339 338 338 336 337 337 337 337 335 334 334 334 332 331 329 327 323 322 322 321 316 313 313 314 316 317 313 309 304 300 303 302 306 310 304 296 267 254 238 229 230 230
344 340 336 333 335 337 337 338 338 338 337 336 335 333 332 327 327 327 328 327 326 324 322 320 325 315 315 313 312 310 307 303 315 319 313 305 311 276 233 225 233 232 226
338 334 334 337 339 341 340 340 340 339 338 338 335 334 331 331 333 333 334 332 327 329 329 323 309 317 327 325 320 320 315 323 316 315 325 309 317 266 220 209 212 216 227
332 332 339 341 344 343 341 341 340 339 339 336 335 335 337 336 336 337 333 330 334 318 315 321 334 337 337 341 326 321 320 325 317 326 325 312 288 277 245 249 250 236 231
338 342 345 347 345 341 341 341 339 340 337 338 338 339 340 340 341 337 334 335 329 342 336 339 343 343 342 336 331 326 330 331 326 326 327 317 291 261 250 243 250 241 212
345 346 345 345 343 342 342 340 340 338 339 339 340 342 344 345 345 342 340 343 344 344 344 347 350 348 336 335 332 331 332 334 339 329 325 313 326 269 239 215 220 188 178
346 344 343 341 343 343 343 340 340 340 340 341 343 346 348 350 350 345 351 351 353 344 349 344 337 338 340 343 346 356 350 335 339 340 324 312 291 262 231 201 191 187 182
346 342 342 341 343 344 345 342 341 340 341 343 346 348 350 351 351 354 354 351 345 342 339 333 334 334 337 340 350 345 345 344 346 333 337 330 276 306 214 159 182 180 192
342 342 342 343 344 345 344 342 341 342 344 345 347 349 350 349 350 353 354 348 344 336 330 331 331 334 334 338 334 336 338 3 346 334 340 360 202 214 136 168 173 187 216
340 342 344 344 345 344 344 343 344 345 345 346 347 349 348 350 351 350 350 360 355 344 336 333 332 333 331 332 335 337 343 341 329 332 337 341 24 77 125 154 175 210 260
Wind_Speed_850mb
17 11 8 8 9 11 15 20 26 32 39 45 52 56 60 62 61 63 66 70 73 76 78 78 77 74 72 72 72 75 80 82 76 81 90 94 96 101 88 77 68 63 61
20 14 11 11 13 16 21 25 31 37 44 50 54 58 60 60 64 67 71 77 81 83 83 82 82 79 79 76 72 70 75 77 55 54 59 61 76 67 56 40 41 43 48
21 19 18 20 20 20 23 28 35 41 48 54 57 61 65 69 73 75 79 79 80 80 78 77 75 74 72 72 70 69 67 79 71 51 46 40 42 53 58 52 52 53 53
28 25 25 23 21 23 26 31 38 45 51 57 61 66 71 77 79 83 87 89 86 83 78 75 74 74 75 77 75 68 68 68 79 69 54 63 77 80 80 61 57 49 51
34 32 29 28 27 27 30 36 42 49 54 58 62 67 73 79 86 90 94 92 88 80 72 67 65 65 67 69 71 75 76 70 70 72 67 68 72 75 78 79 70 68 72
38 36 35 32 28 30 34 42 48 53 58 62 67 72 79 84 89 91 90 87 85 81 73 68 66 66 68 70 73 73 73 74 73 70 65 70 70 74 69 69 72 73 74
43 42 37 32 32 37 43 49 55 61 64 70 74 77 81 84 86 84 82 82 82 79 75 70 69 69 70 71 72 72 72 69 68 63 62 65 69 72 76 82 88 72 63
46 44 37 36 38 43 47 54 59 65 69 74 78 80 81 81 78 75 75 76 76 76 74 73 71 70 70 71 70 71 70 67 62 59 63 71 64 71 71 77 77 57 54
41 40 36 37 41 46 49 53 60 67 73 77 81 82 79 74 72 72 73 75 75 75 74 72 73 72 71 69 69 72 71 66 58 63 62 65 77 73 68 71 75 67 37
38 36 35 36 40 41 42 50 61 70 75 79 79 76 73 72 73 75 77 76 76 76 75 74 72 72 71 70 68 69 69 63 62 61 63 69 70 65 65 62 69 66 60
34 32 31 35 37 36 45 56 66 74 77 76 75 75 78 79 80 80 81 80 79 80 76 76 76 75 74 73 72 69 68 60 60 62 61 63 66 62 62 59 59 57 57
27 26 31 35 34 43 55 64 71 74 73 74 76 78 79 78 79 79 77 73 72 76 70 69 76 80 80 78 77 73 69 62 59 62 66 66 65 61 61 53 54 53 52
20 23 29 30 40 53 63 69 70 71 73 73 76 78 77 80 80 77 77 79 69 72 74 68 67 79 83 83 79 74 65 59 62 66 74 75 66 64 57 53 53 48 48
16 22 25 36 50 59 65 69 72 72 72 75 78 79 80 83 80 78 81 79 78 75 74 70 81 81 89 87 79 64 60 62 61 65 70 72 65 59 48 56 45 44 39
16 20 36 49 56 63 67 71 71 72 73 77 79 80 85 85 81 83 87 87 81 78 73 80 90 89 85 71 60 63 65 63 68 61 67 62 55 51 45 48 44 40 35
20 37 47 55 63 67 71 70 72 75 75 78 80 84 85 83 84 91 93 97 89 80 74 82 79 73 67 62 60 56 63 67 60 61 64 62 51 46 43 46 45 46 45
37 48 56 63 66 68 69 72 74 75 79 82 85 85 84 87 93 96 94 92 84 80 79 76 67 65 66 59 59 60 57 56 54 54 57 59 40 32 31 33 34 29 36
48 55 61 64 62 63 67 72 76 80 83 86 86 84 87 95 95 93 90 84 78 73 70 67 60 67 70 60 57 55 51 46 46 47 46 45 33 29 28 24 27 32 30
47 53 56 56 60 66 71 77 83 84 87 88 87 88 92 94 94 92 84 81 73 69 72 67 64 73 56 50 53 51 48 49 50 38 37 34 26 8 16 18 16 17 24
46 49 48 53 60 67 74 81 85 88 89 88 85 90 90 89 87 79 77 73 68 68 78 66 48 52 53 58 52 47 51 47 39 39 44 20 24 19 14 16 18 21 23
44 43 48 56 61 69 77 83 87 87 85 87 90 90 86 83 77 72 72 68 69 59 60 58 57 57 50 61 47 46 52 42 47 40 35 26 14 20 20 22 22 19 19
42 46 53 59 65 73 79 83 84 83 85 88 89 88 83 78 74 72 70 63 55 56 58 65 68 59 66 50 48 50 42 48 38 39 33 27 20 26 19 23 20 15 20
40 46 55 64 69 75 77 81 79 82 86 87 87 83 78 74 70 65 66 63 58 54 58 71 62 67 63 53 51 61 46 41 42 35 33 34 20 17 16 19 18 21 25
43 51 60 67 75 76 77 73 77 80 81 84 83 78 75 74 69 66 64 61 58 56 70 62 63 61 59 52 59 63 52 46 41 37 36 27 15 12 6 17 25 21 13
45 54 62 69 73 77 75 73 75 78 79 80 77 74 73 72 73 68 64 59 53 50 58 57 56 58 58 52 54 46 46 35 32 33 32 23 2 4 9 20 18 13 9
51 60 66 70 74 72 70 71 72 73 76 77 73 71 71 71 71 74 74 60 53 47 43 41 43 48 43 44 45 46 37 34 37 35 30 21 16 10 10 14 14 11 11
Wind_Direction_850mb
222 233 247 265 286 306 319 328 335 338 337 336 335 333 333 332 329 328 328 327 326 326 325 324 321 318 316 315 314 311 307 303 303 300 294 290 288 286 282 280 277 272 267
222 237 251 264 280 298 313 321 331 336 337 337 335 332 328 325 325 325 325 327 327 327 326 324 323 322 320 319 319 317 313 307 311 306 303 300 295 288 292 279 276 268 262
232 239 249 260 274 294 312 327 333 334 334 332 329 328 326 327 328 328 328 328 326 324 323 322 321 320 320 319 320 320 319 313 308 301 286 293 276 297 292 281 267 262 259
233 239 250 265 284 299 313 322 326 328 329 330 330 331 332 332 331 329 328 327 325 324 323 320 319 318 319 320 320 319 317 315 309 303 284 276 275 280 288 275 274 270 263
232 240 250 260 275 292 305 316 321 325 327 329 330 331 330 329 328 329 327 325 323 323 322 319 317 317 317 316 315 316 315 314 309 304 294 284 278 277 273 278 269 269 261
236 244 252 261 278 292 304 311 317 323 324 326 330 330 329 328 326 325 323 323 322 323 322 319 317 317 318 318 315 313 312 309 308 305 294 284 280 279 274 274 269 264 262
238 246 252 265 278 291 304 313 318 321 325 328 328 328 327 325 323 323 323 322 322 322 322 320 319 319 318 316 316 314 312 308 306 305 298 290 283 281 279 273 278 267 267
242 249 257 269 282 294 304 310 315 321 325 326 326 325 325 322 322 323 322 321 321 322 322 320 318 317 317 317 316 314 312 309 301 298 296 293 288 291 284 278 279 270 263
246 255 266 278 287 293 297 307 318 322 324 325 325 325 325 325 322 322 322 322 322 321 321 320 319 317 316 316 317 314 314 312 303 291 290 292 289 287 286 278 271 272 294
254 259 268 280 292 299 303 311 317 321 325 325 324 324 324 324 323 322 322 320 318 317 316 317 318 318 317 315 314 312 311 308 308 307 298 292 292 290 285 285 275 267 275
266 265 278 297 303 303 310 317 321 324 325 325 325 324 324 325 323 320 318 317 315 315 315 314 315 317 319 318 314 310 311 307 300 299 302 297 290 288 288 289 279 269 267
264 273 296 306 307 314 320 323 324 324 326 326 326 326 327 327 325 323 321 318 313 313 311 310 312 313 313 316 317 312 310 309 307 310 312 306 297 288 286 282 278 271 264
268 292 306 308 319 324 325 324 326 327 328 329 329 328 328 328 326 323 322 321 314 312 311 307 309 313 313 311 313 310 308 309 309 309 312 309 303 285 286 281 269 263 261
287 305 309 322 325 325 326 328 330 332 333 331 330 329 328 327 324 322 323 323 319 311 314 306 310 310 314 312 310 308 303 304 305 304 308 303 298 283 280 278 260 254 250
311 323 331 329 329 330 332 332 333 335 333 331 329 329 327 327 325 325 323 321 321 312 307 305 307 309 313 311 309 304 305 305 303 302 312 302 298 282 279 259 255 242 231
338 338 333 333 335 336 335 335 336 336 334 331 331 330 329 328 327 325 322 320 319 315 308 308 309 310 311 309 307 302 301 299 301 310 307 301 295 280 287 248 250 238 226
345 339 338 338 336 337 337 337 337 335 334 334 334 332 331 329 327 323 322 322 321 316 313 313 314 316 317 313 309 304 300 303 302 306 310 304 296 267 254 238 229 230 230
344 340 336 333 335 337 337 338 338 338 337 336 335 333 332 327 327 327 328 327 326 324 322 320 325 315 315 313 312 310 307 303 315 319 313 305 311 276 233 225 233 232 226
338 334 334 337 339 341 340 340 340 339 338 338 335 334 331 331 333 333 334 332 327 329 329 323 309 317 327 325 320 320 315 323 316 315 325 309 317 266 220 209 212 216 227
332 332 339 341 344 343 341 341 340 339 339 336 335 335 337 336 336 337 333 330 334 318 315 321 334 337 337 341 326 321 320 325 317 326 325 312 288 277 245 249 250 236 231
338 342 345 347 345 341 341 341 339 340 337 338 338 339 340 340 341 337 334 335 329 342 336 339 343 343 342 336 331 326 330 331 326 326 327 317 291 261 250 243 250 241 212
345 346 345 345 343 342 342 340 340 338 339 339 340 342 344 345 345 342 340 343 344 344 344 347 350 348 336 335 332 331 332 334 339 329 325 313 326 269 239 215 220 188 178
346 344 343 341 343 343 343 340 340 340 340 341 343 346 348 350 350 345 351 351 353 344 349 344 337 338 340 343 346 356 350 335 339 340 324 312 291 262 231 201 191 187 182
346 342 342 341 343 344 345 342 341 340 341 343 346 348 350 351 351 354 354 351 345 342 339 333 334 334 337 340 350 345 345 344 346 333 337 330 276 306 214 159 182 180 192
342 342 342 343 344 345 344 342 341 342 344 345 347 349 350 349 350 353 354 348 344 336 330 331 331 334 334 338 334 336 338 3 346 334 340 360 202 214 136 168 173 187 216
340 342 344 344 345 344 344 343 344 345 345 346 347 349 348 350 351 350 350 360 355 344 336 333 332 333 331 332 335 337 343 341 329 332 337 341 24 77 125 154 175 210 260